User: anonymous   Login
Location: Vancouver
(49.2500°N, 123.1330°W)
Time: 08:44:35
(UTC-08:00)
Language:

Cosmos 1939 Rocket - Orbit

View from above orbital plane
View from above orbital plane
View from above satellite
View from above satellite

Ground track
Ground track

The orbit data is extracted from the following two-line orbital elements,

1 19046U 88032B   16039.15539154  .00001656  00000-0  13018-3 0  9997
2 19046  97.6016  92.2652 0036409 222.8429 136.9958 15.01733427498339
Epoch (UTC): 08 February 2016 03:43:45
Eccentricity: 0.0036409
inclination: 97.6016°
perigee height: 536 km
apogee height: 587 km
right ascension of ascending node: 92.2652°
argument of perigee: 222.8429°
revolutions per day: 15.01733427
mean anomaly at epoch: 136.9958°
orbit number at epoch: 49833

The dashed part of the orbit path shows where the satellite is in the earth's shadow,  

DLR